Volver al catálogo

COSMOS 1275 DEB

ActivoPO
NORAD 14741·DEBRIS·🇷🇺 Russia

Lanzado Jun 4, 1981 desde Plesetsk Cosmodrome

Loading…

Próximos Pases (próximas 24 horas)

TLE

ActualizadoSource: Space-Track

Época: Sep 14, 2026, 16:12 UTC

1 14741U 81053JW  26257.67516066  .00000568  00000-0  73750-3 0  9997
2 14741  82.9601  77.1268 0152998 257.8421 233.6404 13.55878188215182

Sigue COSMOS 1275 DEB en tiempo real con AllMySat

Download on the App Store